ARG1635 SAZS-SABE

Flight info

Callsign ARG1635
Flight time 1h 50m
Altitude FL370
Route LIMA1C LIMAY UW26 EGUNO UZ109 ISMIL UT655 ASADA
Aircraft B738/M-VGDW/C

Departure

Time 2026-04-21 21:55
Airport Teniente Luis Candelaria International Airport (SAZS)

Arrival

Time 2026-04-21 23:45
Airport Aeroparque Jorge Newbery (SABE)
Time Latitude Longitude Altitude Speed Heading
2026-04-21 21:27 -41.14717 -71.16110 2748 ft 0 kts 68°
2026-04-21 21:46 -41.14722 -71.16126 2748 ft 2 kts 68°
2026-04-21 21:47 -41.14728 -71.16146 2748 ft 2 kts 68°
2026-04-21 21:47 -41.14734 -71.16166 2748 ft 2 kts 79°
2026-04-21 21:47 -41.14734 -71.16188 2748 ft 2 kts 129°
2026-04-21 21:47 -41.14732 -71.16192 2748 ft 0 kts 149°
2026-04-21 21:50 -41.14737 -71.16188 2750 ft 2 kts 152°
2026-04-21 21:50 -41.14754 -71.16177 2748 ft 4 kts 153°
2026-04-21 21:50 -41.14782 -71.16157 2748 ft 6 kts 153°
2026-04-21 21:50 -41.14816 -71.16121 2749 ft 7 kts 130°
2026-04-21 21:51 -41.14846 -71.16061 2748 ft 9 kts 121°
2026-04-21 21:51 -41.14876 -71.15984 2748 ft 10 kts 116°
2026-04-21 21:51 -41.14908 -71.15894 2750 ft 12 kts 114°
2026-04-21 21:51 -41.14943 -71.15790 2748 ft 13 kts 114°
2026-04-21 21:52 -41.14984 -71.15674 2750 ft 14 kts 116°
2026-04-21 21:52 -41.15024 -71.15560 2749 ft 13 kts 115°
2026-04-21 21:52 -41.15063 -71.15448 2748 ft 14 kts 114°
2026-04-21 21:52 -41.15104 -71.15328 2748 ft 15 kts 114°
2026-04-21 21:53 -41.15150 -71.15195 2748 ft 17 kts 114°
2026-04-21 21:53 -41.15200 -71.15051 2750 ft 18 kts 114°
2026-04-21 21:53 -41.15253 -71.14900 2748 ft 18 kts 115°
2026-04-21 21:53 -41.15304 -71.14754 2748 ft 17 kts 115°
2026-04-21 21:54 -41.15354 -71.14613 2748 ft 17 kts 115°
2026-04-21 21:54 -41.15396 -71.14500 2748 ft 11 kts 129°
2026-04-21 21:54 -41.15470 -71.14488 2750 ft 12 kts 203°
2026-04-21 21:54 -41.15524 -71.14560 2748 ft 12 kts 265°
2026-04-21 21:55 -41.15453 -71.14793 2752 ft 60 kts 294°
2026-04-21 21:55 -41.15174 -71.15590 2750 ft 129 kts 295°
2026-04-21 21:55 -41.14737 -71.16806 3141 ft 155 kts 297°
2026-04-21 21:55 -41.14232 -71.18205 3712 ft 177 kts 292°
2026-04-21 21:56 -41.13741 -71.19741 4541 ft 190 kts 292°
2026-04-21 21:56 -41.13172 -71.21449 4741 ft 214 kts 293°
2026-04-21 21:56 -41.12546 -71.23318 5223 ft 227 kts 292°
2026-04-21 21:56 -41.11903 -71.25260 6008 ft 233 kts 292°
2026-04-21 21:57 -41.11250 -71.27198 6913 ft 231 kts 293°
2026-04-21 21:57 -41.10589 -71.29140 7734 ft 232 kts 293°
2026-04-21 21:57 -41.09927 -71.31089 8548 ft 234 kts 293°
2026-04-21 21:57 -41.09263 -71.33047 9407 ft 233 kts 293°
2026-04-21 21:58 -41.08598 -71.35005 10212 ft 235 kts 294°
2026-04-21 21:58 -41.07604 -71.36734 10862 ft 243 kts 318°
2026-04-21 21:58 -41.06097 -71.37807 11505 ft 257 kts 340°
2026-04-21 21:58 -41.04220 -71.37976 11707 ft 291 kts
2026-04-21 21:59 -41.02218 -71.37009 11889 ft 326 kts 27°
2026-04-21 21:59 -41.00485 -71.34892 12116 ft 357 kts 48°
2026-04-21 21:59 -40.99040 -71.32137 12624 ft 370 kts 53°
2026-04-21 21:59 -40.97689 -71.29219 13394 ft 373 kts 55°
2026-04-21 22:00 -40.96369 -71.26266 14177 ft 374 kts 55°
2026-04-21 22:00 -40.95043 -71.23305 14853 ft 376 kts 55°
2026-04-21 22:00 -40.93692 -71.20326 15461 ft 380 kts 54°
2026-04-21 22:00 -40.92318 -71.17335 16158 ft 381 kts 54°
2026-04-21 22:01 -40.90930 -71.14347 16818 ft 383 kts 54°
2026-04-21 22:01 -40.89525 -71.11346 17492 ft 386 kts 53°
2026-04-21 22:01 -40.88105 -71.08331 18129 ft 389 kts 53°
2026-04-21 22:01 -40.86673 -71.05303 18698 ft 392 kts 53°
2026-04-21 22:02 -40.85223 -71.02244 19180 ft 396 kts 53°
2026-04-21 22:02 -40.83756 -70.99156 19724 ft 399 kts 53°
2026-04-21 22:02 -40.82278 -70.96049 20247 ft 402 kts 53°
2026-04-21 22:02 -40.80787 -70.92917 20771 ft 405 kts 53°
2026-04-21 22:03 -40.79284 -70.89763 21267 ft 409 kts 53°
2026-04-21 22:03 -40.77764 -70.86577 21731 ft 413 kts 53°
2026-04-21 22:03 -40.76235 -70.83372 22231 ft 415 kts 53°
2026-04-21 22:03 -40.74695 -70.80148 22725 ft 418 kts 52°
2026-04-21 22:04 -40.73141 -70.76901 23185 ft 421 kts 52°
2026-04-21 22:04 -40.71573 -70.73625 23629 ft 425 kts 52°
2026-04-21 22:04 -40.69997 -70.70337 24032 ft 427 kts 52°
2026-04-21 22:04 -40.68410 -70.67029 24447 ft 428 kts 52°
2026-04-21 22:05 -40.66816 -70.63710 24834 ft 431 kts 52°
2026-04-21 22:05 -40.65214 -70.60378 25211 ft 433 kts 52°
2026-04-21 22:05 -40.63598 -70.57022 25584 ft 436 kts 52°
2026-04-21 22:05 -40.61974 -70.53652 25958 ft 438 kts 52°
2026-04-21 22:06 -40.60339 -70.50262 26319 ft 440 kts 52°
2026-04-21 22:06 -40.58696 -70.46862 26678 ft 443 kts 52°
2026-04-21 22:06 -40.57045 -70.43447 27027 ft 445 kts 52°
2026-04-21 22:06 -40.55385 -70.40016 27376 ft 447 kts 52°
2026-04-21 22:07 -40.53711 -70.36563 27709 ft 449 kts 52°
2026-04-21 22:07 -40.52029 -70.33097 28036 ft 452 kts 53°
2026-04-21 22:07 -40.50340 -70.29617 28351 ft 454 kts 53°
2026-04-21 22:07 -40.48644 -70.26129 28657 ft 456 kts 52°
2026-04-21 22:08 -40.46935 -70.22619 28975 ft 458 kts 52°
2026-04-21 22:08 -40.45220 -70.19100 29274 ft 460 kts 53°
2026-04-21 22:08 -40.43496 -70.15565 29566 ft 462 kts 53°
2026-04-21 22:08 -40.41759 -70.12010 29859 ft 464 kts 52°
2026-04-21 22:09 -40.40017 -70.08446 30127 ft 466 kts 53°
2026-04-21 22:09 -40.38265 -70.04867 30352 ft 468 kts 53°
2026-04-21 22:09 -40.36512 -70.01289 30637 ft 469 kts 53°
2026-04-21 22:09 -40.34752 -69.97701 31002 ft 466 kts 53°
2026-04-21 22:10 -40.33005 -69.94140 31369 ft 464 kts 53°
2026-04-21 22:10 -40.31265 -69.90601 31676 ft 464 kts 53°
2026-04-21 22:10 -40.29517 -69.87051 31951 ft 464 kts 53°
2026-04-21 22:10 -40.27772 -69.83510 32272 ft 463 kts 53°
2026-04-21 22:11 -40.26031 -69.79982 32617 ft 462 kts 53°
2026-04-21 22:11 -40.24293 -69.76465 32921 ft 461 kts 53°
2026-04-21 22:11 -40.22553 -69.72945 33213 ft 460 kts 53°
2026-04-21 22:11 -40.20817 -69.69440 33518 ft 460 kts 53°
2026-04-21 22:12 -40.19082 -69.65940 33826 ft 459 kts 53°
2026-04-21 22:12 -40.17352 -69.62455 34110 ft 458 kts 53°
2026-04-21 22:12 -40.15624 -69.58978 34338 ft 458 kts 53°
2026-04-21 22:12 -40.13892 -69.55495 34511 ft 459 kts 53°
2026-04-21 22:13 -40.12153 -69.52004 34688 ft 459 kts 53°
2026-04-21 22:13 -40.10412 -69.48512 34904 ft 459 kts 53°
2026-04-21 22:13 -40.08675 -69.45031 35108 ft 459 kts 53°
2026-04-21 22:13 -40.06931 -69.41541 35309 ft 459 kts 53°
2026-04-21 22:14 -40.05189 -69.38057 35485 ft 460 kts 53°
2026-04-21 22:14 -40.03442 -69.34568 35688 ft 460 kts 53°
2026-04-21 22:14 -40.01696 -69.31085 35886 ft 460 kts 53°
2026-04-21 22:14 -39.99943 -69.27592 36070 ft 460 kts 53°
2026-04-21 22:15 -39.98195 -69.24112 36231 ft 461 kts 53°
2026-04-21 22:15 -39.96437 -69.20619 36405 ft 461 kts 53°
2026-04-21 22:15 -39.94682 -69.17131 36603 ft 461 kts 53°
2026-04-21 22:15 -39.92926 -69.13649 36764 ft 461 kts 53°
2026-04-21 22:16 -39.91166 -69.10160 36930 ft 462 kts 53°
2026-04-21 22:16 -39.89403 -69.06671 37034 ft 462 kts 53°
2026-04-21 22:16 -39.87639 -69.03184 37030 ft 464 kts 53°
2026-04-21 22:17 -39.84097 -68.96191 37042 ft 462 kts 53°
2026-04-21 22:17 -39.80571 -68.89244 37040 ft 460 kts 53°
2026-04-21 22:18 -39.77050 -68.82322 37043 ft 459 kts 53°
2026-04-21 22:18 -39.73534 -68.75427 37039 ft 458 kts 53°
2026-04-21 22:19 -39.70017 -68.68546 37042 ft 458 kts 53°
2026-04-21 22:19 -39.66493 -68.61667 37042 ft 459 kts 53°
2026-04-21 22:20 -39.62961 -68.54785 37046 ft 460 kts 53°
2026-04-21 22:20 -39.59413 -68.47889 37044 ft 461 kts 53°
2026-04-21 22:21 -39.55856 -68.40988 37044 ft 462 kts 53°
2026-04-21 22:21 -39.52282 -68.34069 37044 ft 463 kts 53°
2026-04-21 22:22 -39.48699 -68.27150 37042 ft 464 kts 53°
2026-04-21 22:22 -39.45105 -68.20223 37039 ft 465 kts 53°
2026-04-21 22:23 -39.41499 -68.13288 37042 ft 466 kts 53°
2026-04-21 22:23 -39.37886 -68.06354 37040 ft 466 kts 53°
2026-04-21 22:24 -39.34269 -67.99429 37037 ft 466 kts 53°
2026-04-21 22:24 -39.30646 -67.92507 37039 ft 466 kts 53°
2026-04-21 22:25 -39.27023 -67.85599 37036 ft 465 kts 53°
2026-04-21 22:25 -39.23404 -67.78713 37039 ft 465 kts 53°
2026-04-21 22:26 -39.19782 -67.71839 37038 ft 464 kts 53°
2026-04-21 22:26 -39.16161 -67.64980 37033 ft 464 kts 52°
2026-04-21 22:27 -39.12537 -67.58129 37043 ft 463 kts 52°
2026-04-21 22:27 -39.08912 -67.51293 37036 ft 464 kts 52°
2026-04-21 22:28 -39.05277 -67.44451 37042 ft 464 kts 52°
2026-04-21 22:28 -39.01639 -67.37620 37039 ft 464 kts 52°
2026-04-21 22:29 -38.97999 -67.30797 37042 ft 464 kts 52°
2026-04-21 22:29 -38.94352 -67.23976 37042 ft 464 kts 52°
2026-04-21 22:30 -38.90702 -67.17166 37048 ft 464 kts 52°
2026-04-21 22:30 -38.87043 -67.10351 37047 ft 465 kts 52°
2026-04-21 22:31 -38.83379 -67.03543 37047 ft 465 kts 52°
2026-04-21 22:31 -38.79710 -66.96738 37043 ft 465 kts 52°
2026-04-21 22:32 -38.76033 -66.89934 37050 ft 465 kts 52°
2026-04-21 22:32 -38.72347 -66.83127 37052 ft 466 kts 51°
2026-04-21 22:33 -38.68653 -66.76321 37044 ft 467 kts 51°
2026-04-21 22:33 -38.64952 -66.69515 37047 ft 467 kts 51°
2026-04-21 22:34 -38.61239 -66.62701 37051 ft 468 kts 51°
2026-04-21 22:34 -38.57517 -66.55887 37053 ft 469 kts 51°
2026-04-21 22:35 -38.53787 -66.49069 37049 ft 469 kts 51°
2026-04-21 22:35 -38.50048 -66.42252 37053 ft 470 kts 51°
2026-04-21 22:36 -38.44429 -66.32032 37059 ft 470 kts 50°
2026-04-21 22:36 -38.40672 -66.25217 37056 ft 470 kts 50°
2026-04-21 22:37 -38.36912 -66.18410 37059 ft 470 kts 50°
2026-04-21 22:37 -38.33152 -66.11618 37058 ft 470 kts 50°
2026-04-21 22:38 -38.29386 -66.04827 37062 ft 470 kts 50°
2026-04-21 22:38 -38.25617 -65.98047 37062 ft 470 kts 50°
2026-04-21 22:39 -38.21843 -65.91271 37064 ft 470 kts 49°
2026-04-21 22:39 -38.18071 -65.84514 37066 ft 470 kts 49°
2026-04-21 22:40 -38.14295 -65.77764 37072 ft 470 kts 49°
2026-04-21 22:40 -38.10514 -65.71018 37069 ft 470 kts 49°
2026-04-21 22:41 -38.06731 -65.64282 37076 ft 469 kts 49°
2026-04-21 22:41 -38.02949 -65.57561 37073 ft 469 kts 49°
2026-04-21 22:42 -37.99169 -65.50858 37080 ft 468 kts 49°
2026-04-21 22:42 -37.95383 -65.44159 37085 ft 468 kts 49°
2026-04-21 22:43 -37.91592 -65.37463 37081 ft 468 kts 48°
2026-04-21 22:43 -37.87807 -65.30767 37088 ft 469 kts 48°
2026-04-21 22:44 -37.84015 -65.24074 37090 ft 469 kts 48°
2026-04-21 22:44 -37.80208 -65.17388 37087 ft 470 kts 48°
2026-04-21 22:45 -37.76386 -65.10699 37094 ft 471 kts 48°
2026-04-21 22:45 -37.72557 -65.04010 37103 ft 471 kts 48°
2026-04-21 22:46 -37.68715 -64.97311 37095 ft 472 kts 47°
2026-04-21 22:46 -37.64860 -64.90602 37093 ft 473 kts 47°
2026-04-21 22:47 -37.61007 -64.83910 37099 ft 473 kts 47°
2026-04-21 22:47 -37.57143 -64.77212 37102 ft 473 kts 47°
2026-04-21 22:48 -37.53271 -64.70516 37098 ft 474 kts 47°
2026-04-21 22:48 -37.49400 -64.63833 37093 ft 473 kts 47°
2026-04-21 22:49 -37.45523 -64.57152 37099 ft 473 kts 47°
2026-04-21 22:49 -37.41647 -64.50486 37101 ft 473 kts 46°
2026-04-21 22:50 -37.37772 -64.43834 37095 ft 472 kts 46°
2026-04-21 22:50 -37.33901 -64.37182 37099 ft 473 kts 48°
2026-04-21 22:51 -37.30469 -64.30084 37097 ft 479 kts 53°
2026-04-21 22:51 -37.27222 -64.22795 37100 ft 479 kts 53°
2026-04-21 22:52 -37.23965 -64.15537 37100 ft 478 kts 53°
2026-04-21 22:52 -37.20677 -64.08332 37094 ft 477 kts 52°
2026-04-21 22:53 -37.17368 -64.01148 37108 ft 476 kts 52°
2026-04-21 22:53 -37.14054 -63.93978 37105 ft 476 kts 52°
2026-04-21 22:54 -37.10738 -63.86811 37107 ft 476 kts 52°
2026-04-21 22:54 -37.07417 -63.79649 37104 ft 476 kts 52°
2026-04-21 22:55 -37.04097 -63.72503 37105 ft 476 kts 52°
2026-04-21 22:55 -37.00769 -63.65354 37101 ft 476 kts 52°
2026-04-21 22:56 -36.97436 -63.58210 37106 ft 476 kts 52°
2026-04-21 22:56 -36.94099 -63.51072 37102 ft 476 kts 51°
2026-04-21 22:57 -36.90760 -63.43948 37103 ft 476 kts 51°
2026-04-21 22:57 -36.87416 -63.36826 37098 ft 476 kts 51°
2026-04-21 22:58 -36.84067 -63.29710 37101 ft 476 kts 51°
2026-04-21 22:58 -36.80719 -63.22610 37095 ft 476 kts 51°
2026-04-21 22:59 -36.77369 -63.15521 37101 ft 475 kts 51°
2026-04-21 22:59 -36.74016 -63.08442 37099 ft 475 kts 50°
2026-04-21 23:00 -36.70665 -63.01379 37086 ft 474 kts 51°
2026-04-21 23:00 -36.67313 -62.94333 37103 ft 474 kts 50°
2026-04-21 23:01 -36.63948 -62.87291 37098 ft 475 kts 50°
2026-04-21 23:01 -36.60575 -62.80224 37100 ft 476 kts 50°
2026-04-21 23:02 -36.57199 -62.73164 37091 ft 476 kts 50°
2026-04-21 23:02 -36.53812 -62.66100 37098 ft 476 kts 50°
2026-04-21 23:03 -36.50420 -62.59043 37091 ft 476 kts 50°
2026-04-21 23:03 -36.47029 -62.52003 37091 ft 476 kts 50°
2026-04-21 23:04 -36.43631 -62.44962 37088 ft 476 kts 50°
2026-04-21 23:04 -36.40233 -62.37936 37086 ft 475 kts 49°
2026-04-21 23:05 -36.36832 -62.30920 37087 ft 475 kts 49°
2026-04-21 23:05 -36.33429 -62.23914 37092 ft 475 kts 49°
2026-04-21 23:06 -36.30021 -62.16912 37079 ft 475 kts 49°
2026-04-21 23:06 -36.26611 -62.09920 37083 ft 475 kts 49°
2026-04-21 23:07 -36.23198 -62.02936 37081 ft 475 kts 49°
2026-04-21 23:07 -36.19772 -61.95941 37088 ft 476 kts 49°
2026-04-21 23:08 -36.16343 -61.88953 37085 ft 477 kts 49°
2026-04-21 23:08 -36.12904 -61.81955 37086 ft 477 kts 49°
2026-04-21 23:09 -36.09450 -61.74943 37083 ft 479 kts 49°
2026-04-21 23:09 -36.05993 -61.67924 37083 ft 480 kts 49°
2026-04-21 23:10 -36.02523 -61.60891 37081 ft 481 kts 49°
2026-04-21 23:10 -35.99040 -61.53844 37075 ft 482 kts 49°
2026-04-21 23:11 -35.95550 -61.46799 37072 ft 483 kts 49°
2026-04-21 23:11 -35.92044 -61.39733 37077 ft 484 kts 49°
2026-04-21 23:12 -35.88531 -61.32668 37073 ft 484 kts 49°
2026-04-21 23:12 -35.85022 -61.25594 37075 ft 485 kts 49°
2026-04-21 23:13 -35.81516 -61.18498 37069 ft 486 kts 49°
2026-04-21 23:13 -35.78002 -61.11396 37071 ft 486 kts 49°
2026-04-21 23:14 -35.74480 -61.04301 37063 ft 487 kts 49°
2026-04-21 23:14 -35.70954 -60.97211 37069 ft 487 kts 49°
2026-04-21 23:15 -35.67417 -60.90117 37064 ft 488 kts 49°
2026-04-21 23:15 -35.63902 -60.83071 36818 ft 478 kts 49°
2026-04-21 23:16 -35.62171 -60.79601 36326 ft 475 kts 49°
2026-04-21 23:16 -35.60442 -60.76151 35707 ft 477 kts 50°
2026-04-21 23:16 -35.58698 -60.72675 35068 ft 479 kts 50°
2026-04-21 23:16 -35.56953 -60.69217 34581 ft 476 kts 50°
2026-04-21 23:17 -35.55222 -60.65777 34234 ft 471 kts 51°
2026-04-21 23:17 -35.53518 -60.62379 33857 ft 466 kts 51°
2026-04-21 23:17 -35.51839 -60.59030 33358 ft 458 kts 51°
2026-04-21 23:17 -35.50178 -60.55725 32641 ft 454 kts 51°
2026-04-21 23:18 -35.48528 -60.52451 31898 ft 451 kts 51°
2026-04-21 23:18 -35.46885 -60.49199 31235 ft 447 kts 52°
2026-04-21 23:18 -35.45264 -60.45992 30629 ft 441 kts 52°
2026-04-21 23:18 -35.43658 -60.42816 30032 ft 436 kts 52°
2026-04-21 23:19 -35.42071 -60.39680 29342 ft 431 kts 52°
2026-04-21 23:19 -35.40504 -60.36586 28626 ft 427 kts 52°
2026-04-21 23:19 -35.38943 -60.33510 27956 ft 425 kts 52°
2026-04-21 23:19 -35.37391 -60.30456 27532 ft 422 kts 52°
2026-04-21 23:20 -35.35846 -60.27417 27085 ft 420 kts 52°
2026-04-21 23:20 -35.34311 -60.24397 26680 ft 417 kts 52°
2026-04-21 23:20 -35.32783 -60.21396 26273 ft 414 kts 52°
2026-04-21 23:20 -35.31267 -60.18420 25876 ft 412 kts 52°
2026-04-21 23:21 -35.29761 -60.15465 25479 ft 409 kts 52°
2026-04-21 23:21 -35.28263 -60.12528 25089 ft 407 kts 52°
2026-04-21 23:21 -35.26769 -60.09604 24702 ft 405 kts 52°
2026-04-21 23:21 -35.25283 -60.06696 24308 ft 404 kts 52°
2026-04-21 23:22 -35.23800 -60.03798 23917 ft 402 kts 52°
2026-04-21 23:22 -35.22318 -60.00902 23487 ft 401 kts 52°
2026-04-21 23:22 -35.20845 -59.98027 23052 ft 399 kts 52°
2026-04-21 23:22 -35.19378 -59.95166 22639 ft 397 kts 52°
2026-04-21 23:23 -35.17918 -59.92319 22247 ft 394 kts 52°
2026-04-21 23:23 -35.16470 -59.89498 21867 ft 391 kts 52°
2026-04-21 23:23 -35.15030 -59.86696 21480 ft 388 kts 52°
2026-04-21 23:23 -35.13602 -59.83920 21107 ft 386 kts 52°
2026-04-21 23:24 -35.12182 -59.81160 20734 ft 383 kts 52°
2026-04-21 23:24 -35.10771 -59.78421 20368 ft 381 kts 52°
2026-04-21 23:24 -35.09364 -59.75693 20000 ft 379 kts 52°
2026-04-21 23:24 -35.07968 -59.72988 19640 ft 377 kts 52°
2026-04-21 23:25 -35.06577 -59.70291 19267 ft 375 kts 52°
2026-04-21 23:25 -35.05191 -59.67610 18907 ft 373 kts 52°
2026-04-21 23:25 -35.03813 -59.64944 18536 ft 372 kts 53°
2026-04-21 23:25 -35.02629 -59.62133 18149 ft 375 kts 64°
2026-04-21 23:26 -35.01867 -59.59090 17759 ft 377 kts 73°
2026-04-21 23:26 -35.01301 -59.55984 17384 ft 375 kts 75°
2026-04-21 23:26 -35.00770 -59.52889 17004 ft 373 kts 75°
2026-04-21 23:26 -35.00243 -59.49813 16646 ft 370 kts 75°
2026-04-21 23:27 -34.99711 -59.46755 16285 ft 368 kts 74°
2026-04-21 23:27 -34.98966 -59.43814 15925 ft 360 kts 60°
2026-04-21 23:27 -34.97696 -59.41285 15534 ft 344 kts 46°
2026-04-21 23:27 -34.96217 -59.39021 14942 ft 342 kts 45°
2026-04-21 23:28 -34.94716 -59.36788 14375 ft 340 kts 45°
2026-04-21 23:28 -34.93222 -59.34572 13857 ft 337 kts 45°
2026-04-21 23:28 -34.91751 -59.32380 13295 ft 334 kts 45°
2026-04-21 23:28 -34.90293 -59.30197 12751 ft 330 kts 46°
2026-04-21 23:29 -34.88867 -59.28051 12334 ft 324 kts 46°
2026-04-21 23:29 -34.87455 -59.25923 11989 ft 323 kts 46°
2026-04-21 23:29 -34.86050 -59.23804 11646 ft 322 kts 46°
2026-04-21 23:29 -34.84652 -59.21694 11299 ft 321 kts 46°
2026-04-21 23:30 -34.83354 -59.19493 11021 ft 325 kts 62°
2026-04-21 23:30 -34.82747 -59.16833 10811 ft 328 kts 78°
2026-04-21 23:30 -34.82398 -59.14090 10565 ft 330 kts 79°
2026-04-21 23:30 -34.82078 -59.11316 10349 ft 332 kts 80°
2026-04-21 23:31 -34.81763 -59.08545 10104 ft 331 kts 80°
2026-04-21 23:31 -34.81443 -59.05783 9866 ft 330 kts 80°
2026-04-21 23:31 -34.81120 -59.03048 9638 ft 326 kts 79°
2026-04-21 23:31 -34.80793 -59.00333 9364 ft 323 kts 78°
2026-04-21 23:32 -34.80467 -58.97657 9107 ft 319 kts 79°
2026-04-21 23:32 -34.80141 -58.95014 8859 ft 315 kts 78°
2026-04-21 23:32 -34.79815 -58.92386 8601 ft 312 kts 78°
2026-04-21 23:32 -34.79493 -58.89796 8349 ft 309 kts 78°
2026-04-21 23:33 -34.79169 -58.87210 8115 ft 312 kts 78°
2026-04-21 23:33 -34.78842 -58.84606 7880 ft 312 kts 78°
2026-04-21 23:33 -34.78517 -58.82014 7627 ft 309 kts 78°
2026-04-21 23:33 -34.78194 -58.79449 7377 ft 305 kts 78°
2026-04-21 23:34 -34.77876 -58.76922 7129 ft 302 kts 78°
2026-04-21 23:34 -34.77561 -58.74422 6904 ft 299 kts 78°
2026-04-21 23:34 -34.77247 -58.71942 6664 ft 295 kts 78°
2026-04-21 23:34 -34.76937 -58.69496 6430 ft 292 kts 78°
2026-04-21 23:35 -34.76629 -58.67065 6188 ft 290 kts 78°
2026-04-21 23:35 -34.76322 -58.64659 5934 ft 288 kts 79°
2026-04-21 23:35 -34.76019 -58.62282 5714 ft 285 kts 79°
2026-04-21 23:35 -34.75716 -58.59908 5449 ft 283 kts 78°
2026-04-21 23:36 -34.75415 -58.57556 5215 ft 281 kts 79°
2026-04-21 23:36 -34.75120 -58.55248 4960 ft 278 kts 79°
2026-04-21 23:36 -34.74822 -58.52921 4715 ft 275 kts 79°
2026-04-21 23:36 -34.74529 -58.50631 4454 ft 273 kts 79°
2026-04-21 23:37 -34.74238 -58.48369 4207 ft 271 kts 79°
2026-04-21 23:37 -34.73948 -58.46124 3958 ft 268 kts 79°
2026-04-21 23:37 -34.73661 -58.43893 3705 ft 267 kts 79°
2026-04-21 23:37 -34.73375 -58.41681 3450 ft 265 kts 79°
2026-04-21 23:38 -34.73090 -58.39475 3209 ft 264 kts 80°
2026-04-21 23:38 -34.72806 -58.37280 3039 ft 262 kts 79°
2026-04-21 23:38 -34.72527 -58.35116 2981 ft 258 kts 79°
2026-04-21 23:38 -34.72249 -58.32976 2993 ft 256 kts 79°
2026-04-21 23:39 -34.71972 -58.30848 2966 ft 254 kts 78°
2026-04-21 23:39 -34.71697 -58.28742 2966 ft 252 kts 79°
2026-04-21 23:39 -34.71397 -58.26684 2968 ft 242 kts 70°
2026-04-21 23:39 -34.70558 -58.25051 2985 ft 218 kts 36°
2026-04-21 23:40 -34.69305 -58.24154 2860 ft 205 kts 14°
2026-04-21 23:40 -34.67965 -58.23837 2716 ft 190 kts 359°
2026-04-21 23:40 -34.66699 -58.23853 2546 ft 174 kts 339°
2026-04-21 23:40 -34.65777 -58.24669 2535 ft 164 kts 311°
2026-04-21 23:41 -34.65024 -58.25647 2487 ft 154 kts 308°
2026-04-21 23:41 -34.64346 -58.26600 2305 ft 149 kts 307°
2026-04-21 23:41 -34.63743 -58.27552 2153 ft 136 kts 302°
2026-04-21 23:41 -34.63214 -58.28507 1969 ft 129 kts 300°
2026-04-21 23:42 -34.62736 -58.29342 1844 ft 121 kts 299°
2026-04-21 23:42 -34.62244 -58.30225 1666 ft 128 kts 299°
2026-04-21 23:42 -34.61738 -58.31101 1580 ft 127 kts 301°
2026-04-21 23:42 -34.61215 -58.31951 1492 ft 125 kts 302°
2026-04-21 23:43 -34.60720 -58.32822 1333 ft 128 kts 300°
2026-04-21 23:43 -34.60237 -58.33739 1167 ft 131 kts 300°
2026-04-21 23:43 -34.59742 -58.34662 1084 ft 128 kts 300°
2026-04-21 23:43 -34.59267 -58.35560 980 ft 128 kts 300°
2026-04-21 23:44 -34.58758 -58.36466 830 ft 131 kts 299°
2026-04-21 23:44 -34.58258 -58.37378 709 ft 130 kts 299°
2026-04-21 23:44 -34.57754 -58.38313 581 ft 136 kts 300°
2026-04-21 23:44 -34.57206 -58.39272 400 ft 141 kts 302°
2026-04-21 23:45 -34.56673 -58.40258 211 ft 137 kts 302°
2026-04-21 23:45 -34.55675 -58.42029 26 ft 100 kts 303°
2026-04-21 23:45 -34.55447 -58.42441 27 ft 18 kts 305°
2026-04-21 23:46 -34.55408 -58.42493 26 ft 8 kts 330°
2026-04-21 23:46 -34.55365 -58.42465 26 ft 8 kts 71°
2026-04-21 23:46 -34.55369 -58.42399 24 ft 8 kts 103°
2026-04-21 23:46 -34.55391 -58.42338 26 ft 8 kts 116°
2026-04-21 23:47 -34.55422 -58.42287 24 ft 7 kts 129°
2026-04-21 23:47 -34.55453 -58.42239 25 ft 7 kts 128°
2026-04-21 23:47 -34.55483 -58.42191 27 ft 7 kts 127°
2026-04-21 23:47 -34.55514 -58.42142 27 ft 8 kts 127°
2026-04-21 23:48 -34.55554 -58.42079 25 ft 11 kts 127°
2026-04-21 23:48 -34.55600 -58.42002 26 ft 11 kts 124°
2026-04-21 23:48 -34.55641 -58.41923 28 ft 11 kts 121°
2026-04-21 23:48 -34.55681 -58.41850 27 ft 10 kts 124°
2026-04-21 23:49 -34.55719 -58.41783 24 ft 10 kts 123°
2026-04-21 23:49 -34.55752 -58.41713 25 ft 9 kts 118°
2026-04-21 23:49 -34.55781 -58.41643 27 ft 9 kts 115°
2026-04-21 23:49 -34.55808 -58.41574 29 ft 9 kts 115°
2026-04-21 23:50 -34.55837 -58.41509 25 ft 9 kts 118°
2026-04-21 23:50 -34.55866 -58.41441 28 ft 10 kts 117°
2026-04-21 23:50 -34.55898 -58.41366 26 ft 7 kts 117°
2026-04-21 23:50 -34.55894 -58.41309 24 ft 8 kts 51°
2026-04-21 23:51 -34.55841 -58.41293 24 ft 9 kts 333°
2026-04-21 23:51 -34.55809 -58.41337 26 ft 7 kts 307°
2026-04-21 23:51 -34.55776 -58.41383 26 ft 6 kts 335°
2026-04-21 23:51 -34.55746 -58.41371 24 ft 5 kts 30°
2026-04-21 23:52 -34.55737 -58.41365 24 ft 0 kts 30°